contact:dominique.lefevre@mio.osupytheas.fr, maurice.libes@osupytheas.fr, didier.mallarino@osupytheas.fr
Project:EMSO http://www.emso-fr.org/EMSO-France
Depth: 2436.0 m
Title:EMSO Ligure Ouest : Data MII capteur CSTAR
DateTime,Latitude,Longitude,Instrument_Serial,Reference_Counts,Signal_Counts,Corrected_Signal_raw_counts,Calculated_Beam_c_inverse_meters,Internal_thermistor_counts
DateTime,Latitude,Longitude,Instrument_Serial,Reference_Counts,Signal_Counts,Corrected_Signal_raw_counts,Calculated_Beam_c_inverse_meters,Internal_thermistor_counts
2020-03-29T00:02:35,42.805,6.029,CST-1368DR,6549,9183,15207,0.106,551
2020-03-29T00:05:37,42.805,6.029,CST-1368DR,6549,9183,15207,0.106,551
2020-03-29T00:08:38,42.805,6.029,CST-1368DR,6549,9183,15207,0.106,551
2020-03-29T00:11:40,42.805,6.029,CST-1368DR,6549,9183,15207,0.106,551
2020-03-29T00:14:42,42.805,6.029,CST-1368DR,6549,9181,15204,0.107,551
2020-03-29T00:17:43,42.805,6.029,CST-1368DR,6549,9183,15206,0.106,551
2020-03-29T00:20:45,42.805,6.029,CST-1368DR,6549,9181,15204,0.107,551
2020-03-29T00:23:47,42.805,6.029,CST-1368DR,6549,9184,15208,0.106,551
2020-03-29T00:26:48,42.805,6.029,CST-1368DR,6549,9182,15205,0.107,551
2020-03-29T00:29:50,42.805,6.029,CST-1368DR,6549,9180,15202,0.107,550
2020-03-29T00:32:52,42.805,6.029,CST-1368DR,6549,9182,15205,0.107,551
2020-03-29T00:35:54,42.805,6.029,CST-1368DR,6549,9183,15206,0.106,551
2020-03-29T00:38:55,42.805,6.029,CST-1368DR,6549,9183,15207,0.106,551
2020-03-29T00:41:57,42.805,6.029,CST-1368DR,6549,9183,15207,0.106,551
2020-03-29T00:44:59,42.805,6.029,CST-1368DR,6549,9183,15207,0.106,551
2020-03-29T00:48:00,42.805,6.029,CST-1368DR,6549,9183,15206,0.106,551
2020-03-29T00:51:02,42.805,6.029,CST-1368DR,6549,9182,15206,0.106,550
2020-03-29T00:54:04,42.805,6.029,CST-1368DR,6549,9183,15207,0.106,551
2020-03-29T00:57:06,42.805,6.029,CST-1368DR,6549,9183,15207,0.106,551
2020-03-29T01:00:07,42.805,6.029,CST-1368DR,6549,9183,15207,0.106,551
2020-03-29T01:03:09,42.805,6.029,CST-1368DR,6549,9182,15206,0.106,551
2020-03-29T01:06:11,42.805,6.029,CST-1368DR,6549,9182,15206,0.106,551
2020-03-29T01:09:12,42.805,6.029,CST-1368DR,6549,9183,15207,0.106,551
2020-03-29T01:12:14,42.805,6.029,CST-1368DR,6549,9183,15206,0.106,551
2020-03-29T01:15:16,42.805,6.029,CST-1368DR,6549,9181,15204,0.107,551
2020-03-29T01:18:17,42.805,6.029,CST-1368DR,6549,9183,15207,0.106,551
2020-03-29T01:21:19,42.805,6.029,CST-1368DR,6549,9184,15208,0.106,551
2020-03-29T01:24:21,42.805,6.029,CST-1368DR,6549,9182,15204,0.107,550
2020-03-29T01:27:23,42.805,6.029,CST-1368DR,6549,9183,15207,0.106,551
2020-03-29T01:30:24,42.805,6.029,CST-1368DR,6549,9182,15204,0.107,551
2020-03-29T01:33:26,42.805,6.029,CST-1368DR,6549,9183,15206,0.106,551
2020-03-29T01:36:28,42.805,6.029,CST-1368DR,6549,9182,15206,0.106,551
2020-03-29T01:39:29,42.805,6.029,CST-1368DR,6549,9183,15207,0.106,551
2020-03-29T01:42:31,42.805,6.029,CST-1368DR,6549,9183,15207,0.106,551
2020-03-29T01:45:33,42.805,6.029,CST-1368DR,6549,9183,15207,0.106,551
2020-03-29T01:48:35,42.805,6.029,CST-1368DR,6549,9184,15208,0.106,551
2020-03-29T01:51:36,42.805,6.029,CST-1368DR,6549,9183,15207,0.106,551
2020-03-29T01:54:38,42.805,6.029,CST-1368DR,6549,9182,15206,0.106,551
2020-03-29T01:57:40,42.805,6.029,CST-1368DR,6549,9183,15206,0.106,551
2020-03-29T02:00:41,42.805,6.029,CST-1368DR,6549,9183,15207,0.106,551
2020-03-29T02:03:43,42.805,6.029,CST-1368DR,6549,9183,15207,0.106,551
2020-03-29T02:06:45,42.805,6.029,CST-1368DR,6549,9182,15205,0.107,551
2020-03-29T02:09:47,42.805,6.029,CST-1368DR,6549,9180,15202,0.107,551
2020-03-29T02:12:48,42.805,6.029,CST-1368DR,6549,9183,15206,0.106,551
2020-03-29T02:15:50,42.805,6.029,CST-1368DR,6549,9183,15206,0.106,551
2020-03-29T02:18:52,42.805,6.029,CST-1368DR,6549,9183,15207,0.106,551
2020-03-29T02:21:53,42.805,6.029,CST-1368DR,6549,9183,15207,0.106,551
2020-03-29T02:24:55,42.805,6.029,CST-1368DR,6549,9183,15207,0.106,551
2020-03-29T02:27:57,42.805,6.029,CST-1368DR,6549,9183,15206,0.106,551
2020-03-29T02:30:58,42.805,6.029,CST-1368DR,6549,9181,15204,0.107,551
2020-03-29T02:34:00,42.805,6.029,CST-1368DR,6549,9180,15202,0.107,551
2020-03-29T02:37:02,42.805,6.029,CST-1368DR,6549,9184,15208,0.106,551
2020-03-29T02:40:03,42.805,6.029,CST-1368DR,6549,9183,15206,0.106,551
2020-03-29T02:43:05,42.805,6.029,CST-1368DR,6549,9182,15206,0.106,551
2020-03-29T02:46:07,42.805,6.029,CST-1368DR,6549,9182,15205,0.107,550
2020-03-29T02:49:09,42.805,6.029,CST-1368DR,6549,9182,15205,0.107,551
2020-03-29T02:52:10,42.805,6.029,CST-1368DR,6549,9182,15204,0.107,551
2020-03-29T02:55:12,42.805,6.029,CST-1368DR,6549,9183,15207,0.106,551
2020-03-29T02:58:14,42.805,6.029,CST-1368DR,6549,9181,15204,0.107,551
2020-03-29T03:01:15,42.805,6.029,CST-1368DR,6549,9181,15204,0.107,551
2020-03-29T03:04:17,42.805,6.029,CST-1368DR,6549,9181,15204,0.107,551
2020-03-29T03:07:19,42.805,6.029,CST-1368DR,6548,9182,15207,0.106,551
2020-03-29T03:10:20,42.805,6.029,CST-1368DR,6549,9182,15205,0.107,551
2020-03-29T03:13:22,42.805,6.029,CST-1368DR,6549,9183,15206,0.106,551
2020-03-29T03:16:24,42.805,6.029,CST-1368DR,6549,9181,15204,0.107,551
2020-03-29T03:19:26,42.805,6.029,CST-1368DR,6549,9182,15206,0.106,551
2020-03-29T03:22:27,42.805,6.029,CST-1368DR,6549,9182,15205,0.107,551
2020-03-29T03:25:29,42.805,6.029,CST-1368DR,6548,9182,15207,0.106,551
2020-03-29T03:28:31,42.805,6.029,CST-1368DR,6548,9182,15207,0.106,551
2020-03-29T03:31:32,42.805,6.029,CST-1368DR,6548,9183,15208,0.106,551
2020-03-29T03:34:34,42.805,6.029,CST-1368DR,6548,9180,15203,0.107,551
2020-03-29T03:37:36,42.805,6.029,CST-1368DR,6549,9183,15207,0.106,551
2020-03-29T03:40:38,42.805,6.029,CST-1368DR,6548,9181,15206,0.106,551
2020-03-29T03:43:39,42.805,6.029,CST-1368DR,6548,9180,15205,0.107,551
2020-03-29T03:46:41,42.805,6.029,CST-1368DR,6548,9182,15207,0.106,551
2020-03-29T03:49:43,42.805,6.029,CST-1368DR,6548,9182,15207,0.106,551
2020-03-29T03:52:44,42.805,6.029,CST-1368DR,6548,9181,15206,0.106,551
2020-03-29T03:55:46,42.805,6.029,CST-1368DR,6548,9181,15206,0.106,551
2020-03-29T03:58:48,42.805,6.029,CST-1368DR,6548,9180,15205,0.107,550
2020-03-29T04:01:50,42.805,6.029,CST-1368DR,6548,9179,15202,0.107,551
2020-03-29T04:04:51,42.805,6.029,CST-1368DR,6548,9181,15205,0.107,551
2020-03-29T04:07:53,42.805,6.029,CST-1368DR,6548,9180,15204,0.107,551
2020-03-29T04:10:55,42.805,6.029,CST-1368DR,6548,9181,15205,0.107,551
2020-03-29T04:13:56,42.805,6.029,CST-1368DR,6548,9181,15206,0.106,551
2020-03-29T04:16:58,42.805,6.029,CST-1368DR,6548,9180,15203,0.107,550
2020-03-29T04:20:00,42.805,6.029,CST-1368DR,6548,9181,15205,0.107,551
2020-03-29T04:23:02,42.805,6.029,CST-1368DR,6548,9181,15206,0.106,551
2020-03-29T04:26:03,42.805,6.029,CST-1368DR,6548,9181,15206,0.106,551
2020-03-29T04:29:05,42.805,6.029,CST-1368DR,6548,9180,15204,0.107,551
2020-03-29T04:32:07,42.805,6.029,CST-1368DR,6548,9180,15205,0.107,551
2020-03-29T04:35:09,42.805,6.029,CST-1368DR,6548,9182,15208,0.106,551
2020-03-29T04:38:10,42.805,6.029,CST-1368DR,6548,9182,15207,0.106,551
2020-03-29T04:41:12,42.805,6.029,CST-1368DR,6548,9181,15206,0.106,551
2020-03-29T04:44:14,42.805,6.029,CST-1368DR,6548,9181,15206,0.106,551
2020-03-29T04:47:16,42.805,6.029,CST-1368DR,6548,9182,15207,0.106,551
2020-03-29T04:50:17,42.805,6.029,CST-1368DR,6548,9182,15207,0.106,551
2020-03-29T04:53:19,42.805,6.029,CST-1368DR,6548,9180,15204,0.107,551
2020-03-29T04:56:21,42.805,6.029,CST-1368DR,6548,9181,15206,0.106,551
2020-03-29T04:59:22,42.805,6.029,CST-1368DR,6548,9181,15205,0.107,551
2020-03-29T05:02:24,42.805,6.029,CST-1368DR,6548,9182,15207,0.106,551
2020-03-29T05:05:26,42.805,6.029,CST-1368DR,6548,9181,15205,0.107,551
2020-03-29T05:08:27,42.805,6.029,CST-1368DR,6548,9181,15206,0.106,551
2020-03-29T05:11:29,42.805,6.029,CST-1368DR,6548,9181,15206,0.106,551
2020-03-29T05:14:31,42.805,6.029,CST-1368DR,6548,9181,15205,0.107,551
2020-03-29T05:17:32,42.805,6.029,CST-1368DR,6548,9177,15200,0.108,551
2020-03-29T05:20:34,42.805,6.029,CST-1368DR,6548,9181,15205,0.107,551
2020-03-29T05:23:36,42.805,6.029,CST-1368DR,6548,9181,15206,0.106,551
2020-03-29T05:26:38,42.805,6.029,CST-1368DR,6548,9181,15205,0.107,551
2020-03-29T05:29:39,42.805,6.029,CST-1368DR,6548,9181,15206,0.106,551
2020-03-29T05:32:41,42.805,6.029,CST-1368DR,6548,9181,15206,0.106,551
2020-03-29T05:35:43,42.805,6.029,CST-1368DR,6548,9181,15205,0.107,551
2020-03-29T05:38:44,42.805,6.029,CST-1368DR,6548,9180,15204,0.107,551
2020-03-29T05:41:46,42.805,6.029,CST-1368DR,6548,9182,15207,0.106,551
2020-03-29T05:44:48,42.805,6.029,CST-1368DR,6548,9181,15206,0.106,551
2020-03-29T05:47:49,42.805,6.029,CST-1368DR,6548,9181,15206,0.106,551
2020-03-29T05:50:51,42.805,6.029,CST-1368DR,6548,9182,15207,0.106,551
2020-03-29T05:53:53,42.805,6.029,CST-1368DR,6548,9181,15205,0.107,551
2020-03-29T05:56:55,42.805,6.029,CST-1368DR,6548,9181,15206,0.106,551
2020-03-29T05:59:56,42.805,6.029,CST-1368DR,6548,9178,15201,0.108,551
2020-03-29T06:02:58,42.805,6.029,CST-1368DR,6548,9181,15206,0.106,551
2020-03-29T06:06:00,42.805,6.029,CST-1368DR,6548,9181,15205,0.107,551
2020-03-29T06:09:01,42.805,6.029,CST-1368DR,6548,9182,15207,0.106,551
2020-03-29T06:12:03,42.805,6.029,CST-1368DR,6548,9180,15205,0.107,551
2020-03-29T06:15:05,42.805,6.029,CST-1368DR,6548,9181,15205,0.107,551
2020-03-29T06:18:07,42.805,6.029,CST-1368DR,6548,9181,15205,0.107,551
2020-03-29T06:21:08,42.805,6.029,CST-1368DR,6548,9176,15198,0.109,551
2020-03-29T06:24:10,42.805,6.029,CST-1368DR,6548,9180,15204,0.107,550
2020-03-29T06:27:12,42.805,6.029,CST-1368DR,6548,9180,15204,0.107,551
2020-03-29T06:30:13,42.805,6.029,CST-1368DR,6548,9181,15206,0.106,551
2020-03-29T06:33:15,42.805,6.029,CST-1368DR,6548,9179,15202,0.107,551
2020-03-29T06:36:17,42.805,6.029,CST-1368DR,6548,9179,15202,0.107,551
2020-03-29T06:39:18,42.805,6.029,CST-1368DR,6548,9181,15206,0.106,551
2020-03-29T06:42:20,42.805,6.029,CST-1368DR,6548,9181,15206,0.106,551
2020-03-29T06:45:22,42.805,6.029,CST-1368DR,6548,9180,15205,0.107,551
2020-03-29T06:48:24,42.805,6.029,CST-1368DR,6548,9180,15204,0.107,551
2020-03-29T06:51:25,42.805,6.029,CST-1368DR,6548,9180,15204,0.107,551
2020-03-29T06:54:27,42.805,6.029,CST-1368DR,6548,9176,15198,0.109,551
2020-03-29T06:57:29,42.805,6.029,CST-1368DR,6548,9180,15205,0.107,550
2020-03-29T07:00:30,42.805,6.029,CST-1368DR,6548,9181,15205,0.107,551
2020-03-29T07:03:32,42.805,6.029,CST-1368DR,6548,9179,15202,0.107,551
2020-03-29T07:06:34,42.805,6.029,CST-1368DR,6548,9180,15205,0.107,551
2020-03-29T07:09:35,42.805,6.029,CST-1368DR,6548,9178,15201,0.108,550
2020-03-29T07:12:37,42.805,6.029,CST-1368DR,6548,9180,15204,0.107,551
2020-03-29T07:15:39,42.805,6.029,CST-1368DR,6548,9178,15200,0.108,551
2020-03-29T07:18:41,42.805,6.029,CST-1368DR,6547,9180,15206,0.106,551
2020-03-29T07:21:42,42.805,6.029,CST-1368DR,6548,9180,15205,0.107,551
2020-03-29T07:24:44,42.805,6.029,CST-1368DR,6548,9181,15205,0.107,550
2020-03-29T07:27:46,42.805,6.029,CST-1368DR,6548,9180,15205,0.107,551
2020-03-29T07:30:48,42.805,6.029,CST-1368DR,6548,9181,15205,0.107,551
2020-03-29T07:33:49,42.805,6.029,CST-1368DR,6547,9179,15205,0.107,551
2020-03-29T07:36:51,42.805,6.029,CST-1368DR,6548,9181,15205,0.107,551
2020-03-29T07:39:53,42.805,6.029,CST-1368DR,6547,9180,15206,0.106,551
2020-03-29T07:42:54,42.805,6.029,CST-1368DR,6547,9181,15208,0.106,551
2020-03-29T07:45:56,42.805,6.029,CST-1368DR,6547,9181,15208,0.106,551
2020-03-29T07:48:58,42.805,6.029,CST-1368DR,6547,9181,15208,0.106,551
2020-03-29T07:51:59,42.805,6.029,CST-1368DR,6547,9181,15207,0.106,551
2020-03-29T07:55:01,42.805,6.029,CST-1368DR,6547,9180,15206,0.106,551
2020-03-29T07:58:03,42.805,6.029,CST-1368DR,6547,9181,15208,0.106,551
2020-03-29T08:01:05,42.805,6.029,CST-1368DR,6547,9181,15208,0.106,551
2020-03-29T08:04:06,42.805,6.029,CST-1368DR,6547,9181,15207,0.106,551
2020-03-29T08:07:08,42.805,6.029,CST-1368DR,6547,9181,15208,0.106,551
2020-03-29T08:10:10,42.805,6.029,CST-1368DR,6547,9181,15208,0.106,551
2020-03-29T08:13:12,42.805,6.029,CST-1368DR,6547,9180,15206,0.106,551
2020-03-29T08:16:13,42.805,6.029,CST-1368DR,6547,9180,15206,0.106,551
2020-03-29T08:19:15,42.805,6.029,CST-1368DR,6547,9180,15205,0.107,551
2020-03-29T08:22:17,42.805,6.029,CST-1368DR,6547,9180,15205,0.107,551
2020-03-29T08:25:18,42.805,6.029,CST-1368DR,6547,9179,15205,0.107,551
2020-03-29T08:28:20,42.805,6.029,CST-1368DR,6547,9182,15209,0.106,551
2020-03-29T08:31:22,42.805,6.029,CST-1368DR,6547,9181,15208,0.106,551
2020-03-29T08:34:23,42.805,6.029,CST-1368DR,6547,9179,15204,0.107,551
2020-03-29T08:37:25,42.805,6.029,CST-1368DR,6547,9180,15206,0.106,551
2020-03-29T08:40:27,42.805,6.029,CST-1368DR,6547,9181,15208,0.106,551
2020-03-29T08:43:29,42.805,6.029,CST-1368DR,6547,9181,15207,0.106,551
2020-03-29T08:46:30,42.805,6.029,CST-1368DR,6547,9181,15207,0.106,551
2020-03-29T08:49:32,42.805,6.029,CST-1368DR,6547,9178,15203,0.107,551
2020-03-29T08:52:34,42.805,6.029,CST-1368DR,6547,9180,15206,0.106,551
2020-03-29T08:55:36,42.805,6.029,CST-1368DR,6547,9181,15208,0.106,551
2020-03-29T08:58:37,42.805,6.029,CST-1368DR,6547,9179,15204,0.107,551
2020-03-29T09:01:39,42.805,6.029,CST-1368DR,6547,9180,15206,0.106,551
2020-03-29T09:04:41,42.805,6.029,CST-1368DR,6547,9180,15206,0.106,551
2020-03-29T09:07:42,42.805,6.029,CST-1368DR,6547,9181,15208,0.106,551
2020-03-29T09:10:44,42.805,6.029,CST-1368DR,6547,9181,15207,0.106,551
2020-03-29T09:13:46,42.805,6.029,CST-1368DR,6547,9181,15208,0.106,551
2020-03-29T09:16:48,42.805,6.029,CST-1368DR,6547,9177,15202,0.107,551
2020-03-29T09:19:49,42.805,6.029,CST-1368DR,6547,9179,15205,0.107,551
2020-03-29T09:22:51,42.805,6.029,CST-1368DR,6547,9180,15207,0.106,551
2020-03-29T09:25:53,42.805,6.029,CST-1368DR,6547,9180,15205,0.107,551
2020-03-29T09:28:55,42.805,6.029,CST-1368DR,6547,9180,15206,0.106,551
2020-03-29T09:31:56,42.805,6.029,CST-1368DR,6547,9178,15203,0.107,551
2020-03-29T09:34:58,42.805,6.029,CST-1368DR,6547,9179,15205,0.107,551
2020-03-29T09:38:00,42.805,6.029,CST-1368DR,6547,9180,15206,0.106,551
2020-03-29T09:41:01,42.805,6.029,CST-1368DR,6547,9179,15205,0.107,551
2020-03-29T09:44:03,42.805,6.029,CST-1368DR,6547,9181,15207,0.106,551
2020-03-29T09:47:05,42.805,6.029,CST-1368DR,6547,9180,15205,0.107,551
2020-03-29T09:50:07,42.805,6.029,CST-1368DR,6547,9180,15205,0.107,551
2020-03-29T09:53:08,42.805,6.029,CST-1368DR,6547,9179,15205,0.107,551
2020-03-29T09:56:10,42.805,6.029,CST-1368DR,6547,9180,15205,0.107,551
2020-03-29T09:59:12,42.805,6.029,CST-1368DR,6547,9178,15203,0.107,551
2020-03-29T10:02:14,42.805,6.029,CST-1368DR,6547,9178,15203,0.107,551
2020-03-29T10:05:15,42.805,6.029,CST-1368DR,6547,9180,15206,0.106,550
2020-03-29T10:08:17,42.805,6.029,CST-1368DR,6547,9179,15205,0.107,551
2020-03-29T10:11:19,42.805,6.029,CST-1368DR,6547,9178,15203,0.107,551
2020-03-29T10:14:20,42.805,6.029,CST-1368DR,6547,9177,15202,0.107,551
2020-03-29T10:17:22,42.805,6.029,CST-1368DR,6547,9178,15203,0.107,551
2020-03-29T10:20:24,42.805,6.029,CST-1368DR,6547,9180,15206,0.106,551
2020-03-29T10:23:25,42.805,6.029,CST-1368DR,6547,9177,15201,0.108,551
2020-03-29T10:26:27,42.805,6.029,CST-1368DR,6547,9178,15203,0.107,551
2020-03-29T10:29:29,42.805,6.029,CST-1368DR,6547,9180,15206,0.106,551
2020-03-29T10:32:30,42.805,6.029,CST-1368DR,6547,9179,15205,0.107,551
2020-03-29T10:35:32,42.805,6.029,CST-1368DR,6547,9179,15204,0.107,551
2020-03-29T10:38:34,42.805,6.029,CST-1368DR,6547,9179,15205,0.107,551
2020-03-29T10:41:36,42.805,6.029,CST-1368DR,6547,9179,15204,0.107,551
2020-03-29T10:44:37,42.805,6.029,CST-1368DR,6547,9180,15205,0.107,551
2020-03-29T10:47:39,42.805,6.029,CST-1368DR,6547,9178,15203,0.107,551
2020-03-29T10:50:41,42.805,6.029,CST-1368DR,6547,9178,15203,0.107,551
2020-03-29T10:53:42,42.805,6.029,CST-1368DR,6547,9179,15205,0.107,551
2020-03-29T10:56:44,42.805,6.029,CST-1368DR,6547,9180,15205,0.107,551
2020-03-29T10:59:46,42.805,6.029,CST-1368DR,6547,9178,15203,0.107,551
2020-03-29T11:02:47,42.805,6.029,CST-1368DR,6547,9179,15204,0.107,551
2020-03-29T11:05:49,42.805,6.029,CST-1368DR,6547,9180,15205,0.107,551
2020-03-29T11:08:51,42.805,6.029,CST-1368DR,6547,9178,15203,0.107,551
2020-03-29T11:11:52,42.805,6.029,CST-1368DR,6547,9177,15202,0.107,551
2020-03-29T11:14:54,42.805,6.029,CST-1368DR,6547,9178,15203,0.107,551
2020-03-29T11:17:56,42.805,6.029,CST-1368DR,6547,9179,15204,0.107,551
2020-03-29T11:20:58,42.805,6.029,CST-1368DR,6547,9177,15202,0.107,551
2020-03-29T11:23:59,42.805,6.029,CST-1368DR,6547,9178,15203,0.107,551
2020-03-29T11:27:01,42.805,6.029,CST-1368DR,6546,9177,15203,0.107,551
2020-03-29T11:30:03,42.805,6.029,CST-1368DR,6547,9179,15205,0.107,551
2020-03-29T11:33:04,42.805,6.029,CST-1368DR,6547,9179,15204,0.107,551
2020-03-29T11:36:06,42.805,6.029,CST-1368DR,6547,9176,15199,0.108,551
2020-03-29T11:39:08,42.805,6.029,CST-1368DR,6546,9178,15204,0.107,551
2020-03-29T11:42:10,42.805,6.029,CST-1368DR,6546,9178,15205,0.107,551
2020-03-29T11:45:11,42.805,6.029,CST-1368DR,6547,9179,15205,0.107,551
2020-03-29T11:48:13,42.805,6.029,CST-1368DR,6546,9179,15207,0.106,551
2020-03-29T11:51:15,42.805,6.029,CST-1368DR,6547,9180,15205,0.107,551
2020-03-29T11:54:16,42.805,6.029,CST-1368DR,6547,9179,15205,0.107,551
2020-03-29T11:57:18,42.805,6.029,CST-1368DR,6547,9179,15204,0.107,551
2020-03-29T12:00:20,42.805,6.029,CST-1368DR,6547,9180,15206,0.106,551
2020-03-29T12:03:21,42.805,6.029,CST-1368DR,6546,9178,15206,0.106,551
2020-03-29T12:06:23,42.805,6.029,CST-1368DR,6547,9177,15201,0.108,551
2020-03-29T12:09:25,42.805,6.029,CST-1368DR,6546,9180,15208,0.106,551
2020-03-29T12:12:27,42.805,6.029,CST-1368DR,6546,9177,15204,0.107,551
2020-03-29T12:15:28,42.805,6.029,CST-1368DR,6547,9179,15205,0.107,551
2020-03-29T12:18:30,42.805,6.029,CST-1368DR,6546,9180,15208,0.106,551
2020-03-29T12:21:32,42.805,6.029,CST-1368DR,6546,9178,15204,0.107,551
2020-03-29T12:24:33,42.805,6.029,CST-1368DR,6546,9178,15205,0.107,551
2020-03-29T12:27:35,42.805,6.029,CST-1368DR,6546,9178,15206,0.106,551
2020-03-29T12:30:37,42.805,6.029,CST-1368DR,6546,9179,15206,0.106,551
2020-03-29T12:33:39,42.805,6.029,CST-1368DR,6546,9178,15206,0.106,551
2020-03-29T12:36:40,42.805,6.029,CST-1368DR,6546,9177,15203,0.107,551
2020-03-29T12:39:42,42.805,6.029,CST-1368DR,6546,9178,15205,0.107,551
2020-03-29T12:42:44,42.805,6.029,CST-1368DR,6546,9175,15200,0.108,551
2020-03-29T12:45:45,42.805,6.029,CST-1368DR,6546,9180,15208,0.106,551
2020-03-29T12:48:47,42.805,6.029,CST-1368DR,6546,9177,15204,0.107,551
2020-03-29T12:51:49,42.805,6.029,CST-1368DR,6546,9177,15203,0.107,551
2020-03-29T12:54:51,42.805,6.029,CST-1368DR,6546,9174,15198,0.109,551
2020-03-29T12:57:53,42.805,6.029,CST-1368DR,6546,9178,15205,0.107,551
2020-03-29T13:00:54,42.805,6.029,CST-1368DR,6546,9179,15207,0.106,550
2020-03-29T13:03:56,42.805,6.029,CST-1368DR,6546,9178,15206,0.106,551
2020-03-29T13:06:58,42.805,6.029,CST-1368DR,6546,9180,15208,0.106,551
2020-03-29T13:10:00,42.805,6.029,CST-1368DR,6546,9179,15206,0.106,551
2020-03-29T13:13:01,42.805,6.029,CST-1368DR,6546,9178,15205,0.107,551
2020-03-29T13:16:03,42.805,6.029,CST-1368DR,6546,9179,15206,0.106,551
2020-03-29T13:19:05,42.805,6.029,CST-1368DR,6546,9178,15205,0.107,551
2020-03-29T13:22:06,42.805,6.029,CST-1368DR,6546,9179,15207,0.106,551
2020-03-29T13:25:08,42.805,6.029,CST-1368DR,6546,9179,15207,0.106,551
2020-03-29T13:28:10,42.805,6.029,CST-1368DR,6546,9178,15206,0.106,551
2020-03-29T13:31:12,42.805,6.029,CST-1368DR,6546,9178,15205,0.107,551
2020-03-29T13:34:13,42.805,6.029,CST-1368DR,6546,9178,15206,0.106,551
2020-03-29T13:37:15,42.805,6.029,CST-1368DR,6546,9178,15205,0.107,551
2020-03-29T13:40:17,42.805,6.029,CST-1368DR,6546,9179,15207,0.106,551
2020-03-29T13:43:18,42.805,6.029,CST-1368DR,6546,9178,15206,0.106,551
2020-03-29T13:46:20,42.805,6.029,CST-1368DR,6546,9178,15206,0.106,551
2020-03-29T13:49:22,42.805,6.029,CST-1368DR,6546,9177,15204,0.107,551
2020-03-29T13:52:24,42.805,6.029,CST-1368DR,6546,9180,15208,0.106,551
2020-03-29T13:55:25,42.805,6.029,CST-1368DR,6546,9180,15208,0.106,551
2020-03-29T13:58:27,42.805,6.029,CST-1368DR,6546,9177,15203,0.107,551
2020-03-29T14:01:29,42.805,6.029,CST-1368DR,6546,9179,15206,0.106,551
2020-03-29T14:04:30,42.805,6.029,CST-1368DR,6546,9180,15208,0.106,551
2020-03-29T14:07:32,42.805,6.029,CST-1368DR,6546,9179,15207,0.106,551
2020-03-29T14:10:34,42.805,6.029,CST-1368DR,6546,9179,15207,0.106,551
2020-03-29T14:13:35,42.805,6.029,CST-1368DR,6546,9178,15205,0.107,551
2020-03-29T14:16:37,42.805,6.029,CST-1368DR,6546,9178,15206,0.106,551
2020-03-29T14:19:39,42.805,6.029,CST-1368DR,6546,9178,15205,0.107,551
2020-03-29T14:22:40,42.805,6.029,CST-1368DR,6546,9178,15204,0.107,551
2020-03-29T14:25:42,42.805,6.029,CST-1368DR,6546,9179,15207,0.106,551
2020-03-29T14:28:44,42.805,6.029,CST-1368DR,6546,9178,15205,0.107,550
2020-03-29T14:31:45,42.805,6.029,CST-1368DR,6546,9178,15206,0.106,551
2020-03-29T14:34:47,42.805,6.029,CST-1368DR,6546,9178,15205,0.107,551
2020-03-29T14:37:49,42.805,6.029,CST-1368DR,6546,9179,15206,0.106,551
2020-03-29T14:40:50,42.805,6.029,CST-1368DR,6546,9176,15202,0.107,551
2020-03-29T14:43:52,42.805,6.029,CST-1368DR,6546,9178,15204,0.107,551
2020-03-29T14:46:54,42.805,6.029,CST-1368DR,6546,9175,15199,0.108,550
2020-03-29T14:49:55,42.805,6.029,CST-1368DR,6546,9177,15204,0.107,551
2020-03-29T14:52:57,42.805,6.029,CST-1368DR,6546,9178,15205,0.107,551
2020-03-29T14:55:59,42.805,6.029,CST-1368DR,6546,9179,15206,0.106,551
2020-03-29T14:59:00,42.805,6.029,CST-1368DR,6546,9178,15205,0.107,551
2020-03-29T15:02:02,42.805,6.029,CST-1368DR,6546,9180,15208,0.106,551
2020-03-29T15:05:03,42.805,6.029,CST-1368DR,6546,9179,15206,0.106,551
2020-03-29T15:08:05,42.805,6.029,CST-1368DR,6546,9179,15206,0.106,551
2020-03-29T15:11:07,42.805,6.029,CST-1368DR,6546,9178,15205,0.107,551
2020-03-29T15:14:08,42.805,6.029,CST-1368DR,6546,9179,15206,0.106,550
2020-03-29T15:17:10,42.805,6.029,CST-1368DR,6546,9178,15205,0.107,551
2020-03-29T15:20:12,42.805,6.029,CST-1368DR,6546,9178,15205,0.107,550
2020-03-29T15:23:14,42.805,6.029,CST-1368DR,6546,9179,15206,0.106,551
2020-03-29T15:26:15,42.805,6.029,CST-1368DR,6546,9178,15205,0.107,551
2020-03-29T15:29:17,42.805,6.029,CST-1368DR,6546,9179,15206,0.106,551
2020-03-29T15:32:19,42.805,6.029,CST-1368DR,6546,9178,15205,0.107,551
2020-03-29T15:35:20,42.805,6.029,CST-1368DR,6546,9179,15206,0.106,551
2020-03-29T15:38:22,42.805,6.029,CST-1368DR,6546,9177,15203,0.107,551
2020-03-29T15:41:24,42.805,6.029,CST-1368DR,6546,9179,15206,0.106,551
2020-03-29T15:44:25,42.805,6.029,CST-1368DR,6546,9178,15206,0.106,551
2020-03-29T15:47:27,42.805,6.029,CST-1368DR,6546,9178,15205,0.107,551
2020-03-29T15:50:29,42.805,6.029,CST-1368DR,6546,9177,15204,0.107,551
2020-03-29T15:53:30,42.805,6.029,CST-1368DR,6546,9178,15205,0.107,551
2020-03-29T15:56:32,42.805,6.029,CST-1368DR,6546,9179,15206,0.106,551
2020-03-29T15:59:34,42.805,6.029,CST-1368DR,6546,9176,15201,0.108,551
2020-03-29T16:02:35,42.805,6.029,CST-1368DR,6546,9177,15204,0.107,551
2020-03-29T16:05:37,42.805,6.029,CST-1368DR,6546,9178,15206,0.106,551
2020-03-29T16:08:39,42.805,6.029,CST-1368DR,6546,9178,15205,0.107,551
2020-03-29T16:11:40,42.805,6.029,CST-1368DR,6546,9178,15205,0.107,551
2020-03-29T16:14:42,42.805,6.029,CST-1368DR,6546,9178,15205,0.107,551
2020-03-29T16:17:44,42.805,6.029,CST-1368DR,6546,9177,15203,0.107,551
2020-03-29T16:20:45,42.805,6.029,CST-1368DR,6546,9178,15205,0.107,551
2020-03-29T16:23:47,42.805,6.029,CST-1368DR,6546,9176,15202,0.107,551
2020-03-29T16:26:49,42.805,6.029,CST-1368DR,6546,9178,15204,0.107,551
2020-03-29T16:29:50,42.805,6.029,CST-1368DR,6546,9177,15204,0.107,551
2020-03-29T16:32:52,42.805,6.029,CST-1368DR,6546,9177,15203,0.107,551
2020-03-29T16:35:54,42.805,6.029,CST-1368DR,6546,9178,15205,0.107,551
2020-03-29T16:38:55,42.805,6.029,CST-1368DR,6546,9172,15196,0.109,551
2020-03-29T16:41:57,42.805,6.029,CST-1368DR,6545,9177,15205,0.107,551
2020-03-29T16:44:59,42.805,6.029,CST-1368DR,6546,9178,15204,0.107,551
2020-03-29T16:48:00,42.805,6.029,CST-1368DR,6546,9178,15204,0.107,551
2020-03-29T16:51:02,42.805,6.029,CST-1368DR,6546,9178,15205,0.107,551
2020-03-29T16:54:04,42.805,6.029,CST-1368DR,6546,9178,15205,0.107,551